Satellite-Ground Cal/Val Region Overpasses Predictions

Prediction of Satellite NPP Overpassing Cal/Val Region: PacNW

Region Location: (Latitude: 10.00, Longitude: 139.50) to (Latitude: 22.70, Longitude: 165.60).

Table of predicted overpasses for the next 14.0 days since TLE Epoch: 3/24/2018
Interval Starting Time Starting Location Ending Time Ending Location
1 03/25/2018 02:19:59 ( 10.00, 164.68) 03/25/2018 02:23:35 ( 22.69, 161.66)
2 03/25/2018 14:51:53 ( 22.65, 161.90) 03/25/2018 14:55:28 ( 10.03, 158.90)
3 03/26/2018 03:42:28 ( 10.01, 144.06) 03/26/2018 03:46:04 ( 22.69, 141.04)
4 03/26/2018 14:34:06 ( 18.31, 165.59) 03/26/2018 14:36:27 ( 10.03, 163.66)
5 03/26/2018 16:14:22 ( 22.65, 141.28) 03/26/2018 16:16:27 ( 15.31, 139.51)
6 03/27/2018 03:23:26 ( 10.01, 148.82) 03/27/2018 03:27:02 ( 22.69, 145.80)
7 03/27/2018 15:55:20 ( 22.64, 146.04) 03/27/2018 15:58:55 ( 10.02, 143.04)
8 03/28/2018 03:04:25 ( 10.02, 153.57) 03/28/2018 03:08:01 ( 22.70, 150.55)
9 03/28/2018 15:36:19 ( 22.64, 150.80) 03/28/2018 15:39:54 ( 10.02, 147.79)
10 03/29/2018 02:45:23 ( 10.02, 158.33) 03/29/2018 02:48:58 ( 22.64, 155.32)
11 03/29/2018 15:17:16 ( 22.70, 155.57) 03/29/2018 15:20:52 ( 10.02, 152.55)
12 03/30/2018 02:26:22 ( 10.02, 163.08) 03/30/2018 02:29:57 ( 22.64, 160.08)
13 03/30/2018 14:58:15 ( 22.70, 160.32) 03/30/2018 15:01:51 ( 10.02, 157.31)
14 03/31/2018 02:10:04 ( 19.60, 165.59) 03/31/2018 02:10:56 ( 22.65, 164.83)
15 03/31/2018 03:48:51 ( 10.03, 142.46) 03/31/2018 03:52:23 ( 22.48, 139.50)
16 03/31/2018 14:39:13 ( 22.69, 165.08) 03/31/2018 14:42:49 ( 10.01, 162.06)
17 03/31/2018 16:20:43 ( 22.69, 139.70) 03/31/2018 16:20:56 ( 21.93, 139.51)
18 04/01/2018 03:29:49 ( 10.03, 147.22) 04/01/2018 03:33:24 ( 22.66, 144.21)
19 04/01/2018 16:01:42 ( 22.68, 144.46) 04/01/2018 16:05:18 ( 10.01, 141.44)
20 04/02/2018 03:10:48 ( 10.04, 151.97) 04/02/2018 03:14:23 ( 22.66, 148.97)
21 04/02/2018 15:42:40 ( 22.68, 149.21) 04/02/2018 15:46:16 ( 10.00, 146.20)
22 04/03/2018 02:51:46 ( 10.04, 156.73) 04/03/2018 02:55:21 ( 22.67, 153.73)
23 04/03/2018 15:23:39 ( 22.68, 153.97) 04/03/2018 15:27:14 ( 10.06, 150.97)
24 04/04/2018 02:32:45 ( 10.05, 161.48) 04/04/2018 02:36:20 ( 22.67, 158.48)
25 04/04/2018 15:04:37 ( 22.67, 158.72) 04/04/2018 15:08:12 ( 10.05, 155.72)
26 04/05/2018 02:14:31 ( 12.88, 165.59) 04/05/2018 02:17:18 ( 22.68, 163.24)
27 04/05/2018 03:55:12 ( 10.00, 140.88) 04/05/2018 03:56:53 ( 15.94, 139.50)
28 04/05/2018 14:45:36 ( 22.67, 163.48) 04/05/2018 14:49:11 ( 10.05, 160.48)
29 04/06/2018 03:36:11 ( 10.01, 145.63) 04/06/2018 03:39:47 ( 22.69, 142.61)
30 04/06/2018 14:29:43 ( 11.63, 165.60) 04/06/2018 14:30:10 ( 10.04, 165.23)
31 04/06/2018 16:08:04 ( 22.66, 142.86) 04/06/2018 16:11:39 ( 10.04, 139.86)
32 04/07/2018 03:17:09 ( 10.01, 150.39) 04/07/2018 03:20:45 ( 22.70, 147.37)


NCC Satellite Cal/Val Overpasses Prediction Service
